Camarillo, CA

2:32 PM PDT on August 20, 2017 (GMT -0700)
Camarillo

Weather History for KCMA - January, 2013

Change the Weather History Date:

Wednesday, January 9, 2013

  Actual Average Record
Temperature  
Mean Temperature 53 °F 54 °F  
Max Temperature 62 °F 65 °F 85 °F (2007)
Min Temperature 43 °F 44 °F 31 °F (1955)
Degree Days  
Heating Degree Days 12 11  
Month to date heating degree days 113 99  
Since 1 July heating degree days 659 780  
Cooling Degree Days 0 0  
Month to date cooling degree days 0 0  
Year to date cooling degree days 0 0  
Growing Degree Days 2 (Base 50)    
Moisture  
Dew Point 46 °F    
Average Humidity 75    
Maximum Humidity 89    
Minimum Humidity 60    
Precipitation  
Precipitation 0.00 in 0.14 in 3.39 in (2005)
Month to date precipitation 0.01 1.27  
Year to date precipitation 0.01 1.27  
Since 1 July precipitation 2.72  
Sea Level Pressure  
Sea Level Pressure 30.09 in    
Wind  
Wind Speed 3 mph (South)    
Max Wind Speed 10 mph    
Max Gust Speed 14 mph    
Visibility 8 miles    
Events      
T = Trace of Precipitation, MM = Missing Value Source: NWS Daily Summary

Daily Weather History Graph

Daily Weather History Graph

Search for Another Location

Airport or City:

Trip Planner

Search our weather history database for the weather conditions in past years. The results will help you decide how hot, cold, wet, or windy it might be!

Date:

Astronomy

Jan. 09, 2013 Rise Set
Actual Time 7:02 AM PST 5:04 PM PST
Civil Twilight 6:35 AM PST 5:32 PM PST
Nautical Twilight 6:04 AM PST 6:03 PM PST
Astronomical Twilight 5:34 AM PST 6:33 PM PST
Moon 4:47 AM PST (1/9) 3:11 PM PST (1/9)
Length of Visible Light 10h 56m
Length of Day
10h 01m
Waning Crescent, 6% of the Moon is Illuminated
Jan 9
Waning Crescent
Jan 11
New
Jan 18
First Quarter
Jan 26
Full
Feb 3
Last Quarter

Hourly Weather History & Observations

Time (PST) Temp. Windchill Dew Point Humidity Pressure Visibility Wind Dir Wind Speed Gust Speed Precip Events Conditions
12:55 AM 45.0 °F - 39.9 °F 82% 30.12 in 10.0 mi Calm Calm - N/A   Clear
1:55 AM 45.0 °F - 39.9 °F 82% 30.14 in 10.0 mi Calm Calm - N/A   Clear
2:55 AM 45.0 °F 43.5 °F 39.0 °F 80% 30.13 in 10.0 mi ENE 3.5 mph - N/A   Clear
3:55 AM 45.0 °F 42.6 °F 39.0 °F 80% 30.12 in 10.0 mi ENE 4.6 mph - N/A   Clear
4:55 AM 43.0 °F - 39.0 °F 86% 30.11 in 10.0 mi Calm Calm - N/A   Clear
5:55 AM 45.0 °F 42.6 °F 37.9 °F 76% 30.12 in 10.0 mi ENE 4.6 mph - N/A   Clear
6:55 AM 45.0 °F 43.5 °F 37.9 °F 76% 30.13 in 10.0 mi East 3.5 mph - N/A   Clear
7:55 AM 48.0 °F - 41.0 °F 77% 30.13 in 10.0 mi ENE 4.6 mph - N/A   Clear
8:55 AM 55.0 °F - 43.0 °F 64% 30.14 in 10.0 mi Calm Calm - N/A   Clear
9:55 AM 57.9 °F - 46.0 °F 65% 30.15 in 10.0 mi Calm Calm - N/A   Clear
10:55 AM 61.0 °F - 46.0 °F 58% 30.14 in 10.0 mi WSW 3.5 mph - N/A   Clear
11:55 AM 60.1 °F - 53.1 °F 78% 30.12 in 8.0 mi WSW 9.2 mph - N/A   Scattered Clouds
12:04 PM 59.0 °F - 53.6 °F 82% 30.09 in 7.0 mi SW 9.2 mph - N/A   Scattered Clouds
12:55 PM 59.0 °F - 52.0 °F 78% 30.09 in 8.0 mi SW 4.6 mph - N/A   Scattered Clouds
1:55 PM 57.9 °F - 52.0 °F 81% 30.07 in 8.0 mi SSW 5.8 mph - N/A   Scattered Clouds
2:45 PM 57.2 °F - 51.8 °F 82% 30.04 in 6.0 mi SSW 4.6 mph - N/A   Haze
2:55 PM 57.9 °F - 52.0 °F 81% 30.07 in 6.0 mi SW 6.9 mph - N/A   Haze
3:55 PM 57.9 °F - 51.1 °F 78% 30.08 in 8.0 mi SW 8.1 mph - N/A   Overcast
4:55 PM 55.9 °F - 50.0 °F 80% 30.07 in 8.0 mi WSW 4.6 mph - N/A   Mostly Cloudy
5:55 PM 55.9 °F - 50.0 °F 80% 30.07 in 7.0 mi Calm Calm - N/A   Overcast
6:55 PM 55.9 °F - 50.0 °F 80% 30.07 in 6.0 mi Calm Calm - N/A   Haze
7:55 PM 55.0 °F - 48.0 °F 77% 30.06 in 10.0 mi ESE 3.5 mph - N/A   Clear
8:55 PM 54.0 °F - 48.0 °F 80% 30.05 in 6.0 mi Calm Calm - N/A   Haze
9:55 PM 52.0 °F - 46.9 °F 83% 30.07 in 6.0 mi WNW 4.6 mph - N/A   Haze
10:22 PM 51.8 °F - 46.4 °F 82% 30.02 in 6.0 mi Calm Calm - N/A   Haze
10:55 PM 51.1 °F - 46.9 °F 86% 30.04 in 6.0 mi East 5.8 mph - N/A   Partly Cloudy
11:23 PM 51.8 °F - 46.4 °F 82% 30.02 in 5.0 mi Calm Calm - N/A   Mostly Cloudy
11:55 PM 51.1 °F - 46.9 °F 86% 30.04 in 5.0 mi Calm Calm - N/A   Overcast